When you browse on this site, cookies collect data to enhance your experience and personalize the content and advertising you see.
Visit our Privacy Policy to learn more. By continuing to use the site, you agree to this use of cookies and data.
  • In Hungary
  • List of Countries
  • For 7 days
  • Water Temperature
  • Satellite Maps
  • Weather Map
  • News
  • Weather Widgets
  • user-avatar
    Login

    Hourly Weather Teacalco

    Today, 18 February, Monday

    Time Temperature Precipitation Wind Pressure Humidity
    00:00 +14°C° 0 mm 0 mps 581 mmHg 35%
    01:00 +14°C° 0 mm 0 mps 581 mmHg 37%
    02:00 +13°C° 0 mm 0 mps 581 mmHg 39%
    03:00 +14°C° 0 mm 1 mps 581 mmHg 40%
    04:00 +13°C° 0 mm 1 mps 580 mmHg 41%
    05:00 +13°C° 0 mm 1 mps 580 mmHg 44%
    06:00 +15°C° 0 mm 1 mps 581 mmHg 40%
    07:00 +18°C° 0 mm 1 mps 583 mmHg 36%
    08:00 +19°C° 0 mm 1 mps 584 mmHg 33%
    09:00 +20°C° 0 mm 2 mps 584 mmHg 30%
    10:00 +24°C° 0 mm 3 mps 585 mmHg 27%
    11:00 +26°C° 0 mm 4 mps 586 mmHg 24%
    12:00 +26°C° 0 mm 5 mps 585 mmHg 24%
    13:00 +26°C° 0 mm 5 mps 585 mmHg 24%
    14:00 +27°C° 0 mm 6 mps 585 mmHg 24%
    15:00 +26°C° 0 mm 5 mps 584 mmHg 27%
    16:00 +23°C° 0 mm 4 mps 584 mmHg 29%
    17:00 +22°C° 0 mm 4 mps 583 mmHg 32%
    18:00 +20°C° 0.1 mm 3 mps 583 mmHg 34%
    19:00 +19°C° 0.1 mm 2 mps 583 mmHg 36%
    20:00 +18°C° 0.1 mm 1 mps 583 mmHg 38%
    21:00 +18°C° 0 mm 1 mps 583 mmHg 42%
    22:00 +16°C° 0 mm 1 mps 582 mmHg 46%
    23:00 +16°C° 0 mm 1 mps 582 mmHg 50%

    Tomorrow, 19 February, Tuesday

    Time Temperature Precipitation Wind Pressure Humidity
    00:00 +15°C° 0 mm 1 mps 582 mmHg 53%
    01:00 +15°C° 0 mm 1 mps 581 mmHg 57%
    02:00 +14°C° 0 mm 1 mps 581 mmHg 61%
    03:00 +14°C° 0 mm 1 mps 581 mmHg 60%
    04:00 +13°C° 0 mm 1 mps 581 mmHg 60%
    05:00 +13°C° 0 mm 1 mps 580 mmHg 59%
    06:00 +14°C° 0 mm 2 mps 581 mmHg 53%
    07:00 +16°C° 0 mm 2 mps 582 mmHg 47%
    08:00 +17°C° 0 mm 3 mps 583 mmHg 41%
    09:00 +19°C° 0 mm 4 mps 584 mmHg 35%
    10:00 +21°C° 0 mm 5 mps 584 mmHg 28%
    11:00 +23°C° 0 mm 6 mps 585 mmHg 22%
    12:00 +23°C° 0 mm 6 mps 584 mmHg 20%
    13:00 +24°C° 0 mm 6 mps 584 mmHg 18%
    14:00 +24°C° 0 mm 6 mps 583 mmHg 15%
    15:00 +23°C° 0 mm 6 mps 583 mmHg 18%
    16:00 +22°C° 0 mm 5 mps 582 mmHg 20%
    17:00 +20°C° 0 mm 4 mps 581 mmHg 23%
    18:00 +19°C° 0 mm 3 mps 581 mmHg 26%
    19:00 +17°C° 0 mm 2 mps 581 mmHg 30%
    20:00 +16°C° 0 mm 1 mps 581 mmHg 34%
    21:00 +15°C° 0 mm 1 mps 581 mmHg 37%
    22:00 +15°C° 0 mm 1 mps 580 mmHg 40%
    23:00 +14°C° 0 mm 1 mps 580 mmHg 43%

    Day after tomorrow, 20 February, Wednesday

    Time Temperature Precipitation Wind Pressure Humidity
    00:00 +14°C° 0 mm 1 mps 580 mmHg 45%
    01:00 +13°C° 0 mm 1 mps 579 mmHg 48%
    02:00 +13°C° 0 mm 1 mps 579 mmHg 51%
    03:00 +12°C° 0 mm 1 mps 579 mmHg 51%
    04:00 +12°C° 0 mm 1 mps 578 mmHg 52%
    05:00 +11°C° 0 mm 1 mps 578 mmHg 52%
    06:00 +13°C° 0 mm 1 mps 579 mmHg 47%
    07:00 +15°C° 0 mm 1 mps 580 mmHg 43%
    08:00 +16°C° 0 mm 1 mps 582 mmHg 38%
    09:00 +18°C° 0 mm 2 mps 582 mmHg 33%
    10:00 +20°C° 0 mm 3 mps 583 mmHg 29%
    11:00 +22°C° 0 mm 3 mps 584 mmHg 24%
    12:00 +23°C° 0 mm 4 mps 583 mmHg 22%
    13:00 +23°C° 0 mm 5 mps 583 mmHg 21%
    14:00 +25°C° 0 mm 5 mps 582 mmHg 19%
    15:00 +23°C° 0 mm 5 mps 582 mmHg 21%
    16:00 +22°C° 0 mm 5 mps 581 mmHg 22%
    17:00 +20°C° 0 mm 5 mps 581 mmHg 24%
    18:00 +19°C° 0 mm 4 mps 581 mmHg 27%
    19:00 +17°C° 0 mm 3 mps 580 mmHg 31%
    20:00 +16°C° 0 mm 2 mps 580 mmHg 34%
    21:00 +15°C° 0 mm 2 mps 580 mmHg 36%
    22:00 +15°C° 0 mm 2 mps 580 mmHg 38%
    23:00 +14°C° 0 mm 2 mps 580 mmHg 40%

    21 February, Thursday

    Time Temperature Precipitation Wind Pressure Humidity
    00:00 +14°C° 0 mm 2 mps 580 mmHg 42%
    01:00 +13°C° 0 mm 1 mps 579 mmHg 43%
    02:00 +12°C° 0 mm 1 mps 579 mmHg 44%
    03:00 +12°C° 0 mm 1 mps 579 mmHg 45%
    04:00 +12°C° 0 mm 1 mps 579 mmHg 46%
    05:00 +11°C° 0 mm 1 mps 579 mmHg 47%
    06:00 +13°C° 0 mm 1 mps 580 mmHg 43%
    07:00 +15°C° 0 mm 2 mps 581 mmHg 39%
    08:00 +16°C° 0 mm 2 mps 582 mmHg 34%
    09:00 +18°C° 0 mm 2 mps 583 mmHg 30%
    10:00 +20°C° 0 mm 3 mps 583 mmHg 25%
    11:00 +22°C° 0 mm 4 mps 584 mmHg 21%
    12:00 +23°C° 0 mm 4 mps 584 mmHg 20%
    13:00 +25°C° 0 mm 4 mps 583 mmHg 18%
    14:00 +25°C° 0 mm 5 mps 583 mmHg 17%
    15:00 +23°C° 0 mm 5 mps 582 mmHg 18%
    16:00 +22°C° 0 mm 5 mps 582 mmHg 20%
    17:00 +21°C° 0 mm 4 mps 581 mmHg 22%
    18:00 +19°C° 0 mm 3 mps 581 mmHg 25%
    19:00 +17°C° 0 mm 2 mps 581 mmHg 28%
    20:00 +16°C° 0 mm 2 mps 581 mmHg 32%
    21:00 +15°C° 0 mm 1 mps 581 mmHg 34%
    22:00 +15°C° 0 mm 1 mps 581 mmHg 35%
    23:00 +13°C° 0 mm 0 mps 581 mmHg 37%

    22 February, Friday

    Time Temperature Precipitation Wind Pressure Humidity
    00:00 +13°C° 0 mm 0 mps 580 mmHg 38%
    01:00 +12°C° 0 mm 0 mps 580 mmHg 39%
    02:00 +12°C° 0 mm 0 mps 579 mmHg 40%
    03:00 +12°C° 0 mm 0 mps 579 mmHg 41%
    04:00 +11°C° 0 mm 0 mps 579 mmHg 42%
    05:00 +11°C° 0 mm 0 mps 579 mmHg 43%
    06:00 +13°C° 0 mm 0 mps 581 mmHg 38%
    07:00 +15°C° 0 mm 0 mps 582 mmHg 33%
    08:00 +16°C° 0 mm 0 mps 583 mmHg 29%
    09:00 +20°C° 0 mm 1 mps 584 mmHg 25%
    10:00 +21°C° 0 mm 2 mps 585 mmHg 21%
    11:00 +24°C° 0 mm 2 mps 585 mmHg 17%
    12:00 +25°C° 0 mm 3 mps 585 mmHg 17%
    13:00 +25°C° 0 mm 3 mps 584 mmHg 16%
    14:00 +26°C° 0 mm 3 mps 584 mmHg 16%
    15:00 +25°C° 0 mm 4 mps 583 mmHg 19%
    16:00 +23°C° 0 mm 4 mps 583 mmHg 21%
    17:00 +22°C° 0 mm 4 mps 582 mmHg 24%
    18:00 +20°C° 0 mm 3 mps 582 mmHg 28%
    19:00 +18°C° 0 mm 2 mps 582 mmHg 32%
    20:00 +18°C° 0 mm 1 mps 582 mmHg 36%
    21:00 +16°C° 0 mm 1 mps 582 mmHg 38%
    22:00 +16°C° 0 mm 1 mps 582 mmHg 40%
    23:00 +14°C° 0 mm 0 mps 582 mmHg 42%

    23 February, Saturday

    Time Temperature Precipitation Wind Pressure Humidity
    00:00 +15°C° 0 mm 1 mps 581 mmHg 43%
    01:00 +14°C° 0 mm 1 mps 581 mmHg 44%
    02:00 +14°C° 0 mm 1 mps 580 mmHg 45%
    03:00 +13°C° 0 mm 1 mps 581 mmHg 46%
    04:00 +13°C° 0 mm 1 mps 581 mmHg 47%
    05:00 +11°C° 0 mm 0 mps 581 mmHg 47%
    06:00 +14°C° 0 mm 1 mps 582 mmHg 44%
    07:00 +16°C° 0 mm 1 mps 583 mmHg 40%
    08:00 +18°C° 0 mm 1 mps 584 mmHg 36%
    09:00 +20°C° 0 mm 1 mps 585 mmHg 34%
    10:00 +21°C° 0 mm 2 mps 585 mmHg 31%
    11:00 +24°C° 0 mm 2 mps 586 mmHg 28%
    12:00 +24°C° 0 mm 3 mps 585 mmHg 27%
    13:00 +25°C° 0 mm 3 mps 585 mmHg 26%
    14:00 +26°C° 0 mm 4 mps 584 mmHg 25%
    15:00 +25°C° 0 mm 4 mps 584 mmHg 26%
    16:00 +23°C° 0 mm 4 mps 584 mmHg 28%
    17:00 +22°C° 0 mm 4 mps 584 mmHg 29%
    18:00 +21°C° 0 mm 3 mps 584 mmHg 32%
    19:00 +20°C° 0 mm 2 mps 584 mmHg 34%
    20:00 +20°C° 0 mm 1 mps 584 mmHg 36%
    21:00 +19°C° 0 mm 1 mps 583 mmHg 39%
    22:00 +19°C° 0 mm 1 mps 583 mmHg 42%
    23:00 +18°C° 0 mm 1 mps 583 mmHg 44%
    Show more